Location: Jaite
(41.2884°N, 81.5737°W)
Time: 12:33:50
(UTC+00:00)

Cosmos 1975 Rocket - Pass Details

Date: 15 November 2025
Orbit: 598 x 626 km, 82.5° (Epoch: 11 December)

Event Time Altitude Azimuth Distance (km) Brightness Sun altitude
Rises 11:41:21 0° 173° (S) 2,836 6.8 -6.7°
Reaches altitude 10° 11:43:36 10° 168° (SSE) 1,935 6.1 -6.3°
Maximum altitude 11:47:43 49° 93° (E) 778 4.2 -5.6°
Drops below altitude 10° 11:51:51 10° 19° (NNE) 1,945 5.6 -4.8°
Sets 11:54:07 0° 14° (NNE) 2,852 6.4 -4.4°
